Hauptseite
METAR-TAF:

METAR-TAF

Flughäfen :

Egelsbach, Deutschland

Flugplatz Frankfurt-Egelsbach

Breite: 49-57-40N, Länge: 8-38-37E, Höhe: 117 m

Beobachtung

Neuester Wetterbericht von vor 15 Minuten, um 11:20 UTC
Wind 12 kt aus Ost/Nordost, Böen bis zu 22 kt
Temperatur 14°C
Luftfeuchtigkeit 36%
Luftdruck 1025 hPa
Sichtweite 10 km oder mehr
keine Wolken unter 1500 m und keine Kumulonimbus oder Gewitterwolken

METAR: EDFE 251120Z 07012G22KT CAVOK 14/M01 Q1025

Zeit: 12:35 (11:35 UTC)


TAF: fehlend

Wetterbeobachtungen und Prognosen von mehr als 4000 Flughäfen (METAR und TAF Bericht).

Die verfügbaren Stationen werden durch gelbe und rote Markierungen auf der Karte dargestellt.

Führen Sie die Maus auf sie, um den Namen der Station zu sehen.

Darauf klicken, um die Beobachtung von Wetterbeobachtungen und Prognosen zu sehen.

Um die Karte zu ändern : klicken Sie auf den grünen Tasten mit einem schwarzen Kreuz Zum Vergrößern, auf den grünen Button mit einem Gedankenstrich zu verkleinern, oder auf die grünen Pfeile für benachbarte Karten.


METAR-TAF: